Dewpoint
70 70 70 70 70 70 70 70 70 70 69 69 69 69 69 69 69 69 69 69 68 68 68 69 70 69 68 63 58 57 56 55 54 55 56 56 57 57 57 54 55 55 55
70 70 70 70 70 70 70 70 70 70 70 70 69 69 69 69 69 69 69 69 68 67 68 68 69 69 68 65 60 56 56 58 55 54 55 55 55 57 57 55 52 54 54
70 70 70 70 70 70 71 71 71 71 71 70 70 69 69 69 69 70 70 69 69 68 68 68 69 69 68 66 63 59 58 59 56 55 54 55 55 56 56 55 53 56 53
70 70 70 70 70 70 71 71 71 71 71 71 70 70 70 70 70 70 69 69 68 69 69 69 69 68 68 66 65 63 61 60 57 55 55 54 54 56 55 54 51 53 53
68 70 70 71 71 71 71 71 71 71 71 71 70 71 70 70 70 70 70 69 69 69 69 71 70 68 67 66 64 65 63 61 57 56 54 55 54 54 53 55 54 54 54
68 69 70 70 71 71 71 71 72 71 71 72 67 70 70 70 70 70 70 70 70 69 69 69 69 68 67 66 64 65 65 62 59 57 56 55 54 54 54 54 55 54 53
69 70 70 70 71 71 72 72 71 71 70 67 71 71 70 70 70 70 70 70 70 69 69 69 68 68 67 67 64 63 65 63 62 59 58 57 56 55 55 55 55 55 55
69 69 70 70 70 71 72 72 72 71 71 69 71 71 71 70 68 69 69 70 70 69 69 68 68 67 66 65 63 62 63 64 62 60 60 60 58 57 56 55 56 57 58
67 67 68 70 70 71 71 72 72 71 69 69 70 71 70 70 69 68 68 70 69 69 69 68 67 66 64 62 61 60 60 62 62 61 60 59 58 57 57 57 56 55 55
71 72 70 69 69 70 71 72 71 70 63 59 65 69 69 69 68 67 68 69 68 68 67 67 65 65 64 62 60 59 58 58 59 62 62 60 59 58 57 58 58 56 56
65 72 72 72 71 71 71 71 70 70 69 66 69 69 69 68 68 66 66 68 68 67 66 65 65 64 64 62 60 60 58 58 57 59 62 61 61 61 60 59 59 58 57
64 69 71 72 72 71 70 70 69 69 68 68 67 67 68 68 68 66 65 68 68 66 66 66 65 64 63 60 59 59 59 57 55 55 56 57 58 59 61 61 61 60 59
63 63 68 72 71 70 69 68 68 68 68 67 67 67 67 68 68 66 64 65 67 68 68 67 65 64 61 58 58 58 58 58 56 54 53 54 56 57 57 58 59 59 59
61 62 66 68 69 66 67 66 66 66 66 66 66 67 67 67 68 67 65 63 65 67 66 64 63 62 60 60 58 59 59 59 57 56 55 55 53 52 54 55 54 54 54
59 61 62 65 65 64 64 64 64 65 65 61 65 66 67 66 67 68 66 64 65 65 64 63 61 59 58 58 58 58 58 60 59 58 56 55 53 52 51 51 51 51 51
54 58 61 63 64 61 62 62 63 62 62 59 60 63 68 67 67 66 65 64 63 62 62 61 60 59 58 57 56 55 56 56 58 58 57 57 55 54 53 51 49 47 46
53 54 57 60 64 64 62 61 60 62 61 60 58 56 59 64 65 65 63 62 60 60 64 62 61 60 59 58 57 56 54 54 56 56 57 56 56 55 53 53 52 50 48
53 54 55 57 59 64 64 63 63 62 62 61 60 59 58 58 59 63 60 58 57 57 63 64 62 61 59 58 57 55 53 52 52 53 54 54 55 55 54 53 53 52 51
53 54 55 55 56 60 64 64 64 63 61 60 62 62 57 57 57 54 56 64 64 62 61 63 64 63 62 60 59 58 56 52 51 51 52 52 52 52 52 52 52 50 50
53 54 54 54 56 57 61 62 62 62 62 61 61 61 61 60 59 59 56 59 64 64 63 63 63 64 63 62 60 58 57 55 52 51 50 50 50 50 50 50 49 48 48
54 54 54 55 55 56 58 60 61 61 61 61 61 61 62 61 61 60 59 57 59 60 63 64 64 64 64 63 62 59 57 56 54 53 52 51 49 48 49 48 48 48 48
55 55 55 55 55 55 55 58 61 61 61 61 62 62 60 61 62 62 61 61 61 60 61 63 65 65 64 64 63 61 59 57 56 55 54 54 53 52 51 51 50 51 52
52 53 54 55 55 54 54 55 58 60 60 61 62 63 63 61 62 62 62 62 63 62 62 64 65 66 66 65 65 63 62 60 60 60 58 57 56 56 55 55 54 54 54
52 53 54 55 54 53 53 53 54 55 57 59 60 61 62 63 63 62 62 63 63 63 64 64 63 64 65 66 65 65 64 63 63 62 61 59 59 58 57 57 57 57 56
50 52 53 55 54 53 53 53 53 54 55 56 57 59 61 61 61 62 62 62 63 63 63 63 63 64 64 64 65 66 65 63 63 62 61 61 61 60 59 58 58 58 58
46 48 48 53 54 54 53 53 53 53 54 54 56 58 59 60 61 61 62 62 63 63 63 64 65 65 65 65 66 65 63 60 61 59 62 62 61 61 61 60 59 59 58
Wind_Speed
21 20 20 20 19 17 19 17 18 17 17 17 15 15 15 15 14 14 14 13 13 12 9 10 11 7 9 11 13 13 12 7 6 3 4 6 11 10 8 7 4 4 5
19 20 21 17 16 19 20 18 17 18 17 18 16 16 15 15 16 16 16 13 16 15 13 12 15 9 12 12 15 17 16 11 7 10 4 6 9 11 10 9 7 5 4
17 19 18 19 19 22 22 20 18 17 17 16 15 17 17 17 16 16 16 17 16 16 13 14 15 13 13 11 16 16 15 13 10 10 8 4 4 11 6 5 6 5 5
17 19 21 23 23 21 22 20 19 19 20 16 15 17 16 17 17 17 15 15 15 13 13 14 13 15 17 17 15 18 15 16 11 13 8 9 7 6 9 9 9 7 8
17 19 24 18 18 19 19 22 22 20 16 12 5 22 18 18 17 17 16 17 16 15 12 12 13 16 15 14 13 14 17 16 15 14 9 7 10 9 19 9 12 8 8
18 21 14 16 17 20 21 21 18 16 14 14 22 23 23 20 19 23 18 17 16 16 15 13 11 14 14 14 16 16 19 21 18 14 12 14 18 14 14 13 12 8 7
18 17 16 16 19 21 18 17 18 14 16 17 22 17 20 15 14 22 24 16 16 16 16 14 11 11 12 12 14 11 16 20 19 22 21 16 15 21 19 16 14 11 9
13 15 15 17 19 18 18 21 16 15 19 28 23 20 18 17 18 25 25 17 16 16 15 15 15 15 15 13 12 11 11 13 15 14 17 17 18 18 24 22 19 10 3
8 10 12 14 18 17 20 21 13 8 12 13 14 15 18 16 13 20 20 16 15 16 13 13 14 15 16 16 13 13 11 10 8 15 15 11 12 20 21 16 14 15 10
18 16 12 12 16 18 18 10 5 13 6 10 27 16 12 11 14 17 19 14 14 12 10 10 15 17 19 21 19 16 15 14 12 11 12 10 12 17 24 21 17 18 10
20 17 14 10 10 13 9 9 9 10 6 11 12 13 8 8 10 13 21 17 16 16 15 12 12 20 21 22 20 18 18 12 12 12 11 9 8 11 16 17 17 17 14
21 19 17 13 8 6 4 3 2 3 4 5 8 9 9 8 10 12 20 19 17 16 15 13 12 18 20 22 22 19 17 13 12 11 10 11 11 12 15 15 15 14 10
20 21 20 14 6 6 6 8 9 10 9 5 7 13 14 10 10 13 17 23 21 17 14 17 19 22 25 22 23 21 18 14 16 14 15 13 13 10 7 7 9 8 9
19 18 17 11 8 10 11 12 15 16 15 11 2 13 16 14 11 10 13 15 16 17 13 16 18 20 22 21 15 14 14 15 17 18 16 15 10 9 12 11 12 12 10
19 15 11 5 3 5 8 13 14 13 13 17 21 25 22 17 15 16 18 18 19 20 15 10 11 11 16 15 15 15 15 14 16 15 15 15 15 15 15 11 10 10 14
19 17 14 7 9 10 9 9 13 18 25 21 18 7 9 11 11 20 25 25 25 25 14 16 18 18 19 20 19 19 17 18 17 15 15 16 17 17 16 12 11 14 17
19 20 17 14 11 15 15 13 17 18 20 30 30 18 19 12 15 17 20 23 23 28 14 18 18 19 20 19 20 21 22 22 18 18 18 17 16 15 16 16 16 16 17
20 22 17 18 16 14 16 17 17 21 24 22 11 11 13 12 15 14 12 10 8 17 16 17 19 20 21 23 22 22 20 18 21 20 19 19 18 17 16 17 18 19 19
19 18 17 17 17 17 15 15 17 17 17 18 10 7 3 5 4 4 13 16 16 16 18 17 17 17 19 20 21 19 19 20 21 20 21 21 21 21 21 19 20 22 21
18 20 19 16 17 17 15 12 13 16 15 15 15 14 6 3 8 9 10 14 13 13 15 19 19 18 17 19 19 19 18 17 18 19 21 22 22 22 23 23 23 23 23
18 18 20 16 15 15 15 15 14 13 14 14 15 14 12 11 13 14 13 14 15 16 16 14 17 19 18 18 18 19 20 20 21 22 20 21 22 24 25 23 23 24 23
18 17 18 18 17 16 14 13 13 14 14 15 14 12 12 14 12 13 14 14 14 16 16 18 19 21 20 21 21 21 21 21 20 20 21 20 20 21 20 21 22 23 22
19 19 19 18 16 17 16 12 12 12 14 15 14 13 12 13 15 16 16 16 16 17 17 16 19 19 18 18 18 19 20 22 21 18 20 20 20 21 20 22 22 21 22
20 19 19 19 17 16 15 14 13 13 14 13 13 13 12 13 13 15 16 17 18 18 16 16 16 19 18 17 18 20 21 21 18 20 24 21 22 22 21 22 22 24 23
20 21 19 18 18 17 17 17 14 13 13 13 14 13 13 13 13 13 11 11 12 14 15 14 16 19 21 21 20 22 23 27 24 21 19 22 24 24 23 23 22 22 22
20 20 22 19 16 16 15 15 16 14 14 14 13 13 13 12 13 13 13 12 13 13 13 12 14 17 19 19 22 24 25 28 29 32 23 21 22 23 23 24 25 22 23
Wind_Direction
196 197 197 203 207 208 214 214 216 218 218 217 215 217 213 212 213 214 220 222 227 232 227 240 243 218 207 189 177 174 174 151 139 154 175 184 189 195 177 170 171 159 144
195 195 207 206 201 209 216 219 216 220 217 215 211 212 215 213 209 212 221 219 222 226 227 237 242 225 203 196 183 187 182 170 142 161 163 168 191 201 187 182 180 189 179
192 195 201 209 211 211 218 218 219 219 221 216 212 215 214 214 210 213 215 220 223 226 221 220 236 225 208 197 193 193 186 182 166 158 156 161 173 182 186 187 188 198 207
196 200 205 207 207 210 216 215 216 212 218 212 218 222 217 215 212 212 212 220 220 224 222 208 218 222 210 204 201 203 183 178 175 163 158 166 179 172 189 194 199 206 213
202 206 218 216 210 209 213 213 217 217 210 149 141 274 233 216 215 212 211 216 220 223 221 212 210 221 208 205 198 196 183 179 172 173 168 164 180 173 199 192 204 194 220
212 224 226 217 213 217 222 223 211 213 170 217 215 217 222 218 213 211 205 211 216 220 226 219 211 207 216 220 214 195 186 182 186 181 183 196 195 195 177 192 189 188 219
218 226 228 221 220 224 229 229 218 195 141 264 243 224 225 219 199 230 211 206 212 217 218 215 207 196 196 213 204 195 198 194 185 191 195 204 187 193 179 186 197 191 199
230 237 234 226 229 229 227 234 226 192 200 216 227 218 216 213 205 221 212 208 209 217 208 204 200 192 191 198 197 194 204 203 203 194 205 211 202 179 182 189 195 183 141
346 296 273 255 246 238 236 242 237 206 40 352 284 225 210 228 220 209 202 199 208 212 200 197 191 186 187 184 192 197 212 219 219 215 215 209 200 184 173 154 175 182 208
343 324 305 264 246 244 247 247 211 144 137 101 266 249 238 246 222 209 193 190 196 193 195 197 192 183 181 191 197 195 207 217 208 212 216 209 198 184 180 189 175 188 192
341 336 328 312 277 258 244 226 221 212 229 235 250 254 244 243 253 216 197 190 187 184 193 203 200 197 190 203 196 197 209 197 203 213 209 199 193 191 195 202 191 196 196
351 350 344 338 321 300 263 227 174 215 209 225 231 256 249 239 236 222 210 199 180 185 190 201 203 203 209 209 201 209 207 189 187 195 191 198 195 202 210 206 205 210 217
358 358 352 345 19 80 118 121 116 124 135 141 278 264 260 250 221 206 216 208 192 195 192 204 200 201 207 208 208 208 194 190 192 199 205 213 206 208 180 186 208 213 226
351 356 360 17 87 119 138 146 157 174 157 142 230 262 255 238 224 217 194 204 209 209 202 186 194 198 195 200 202 206 200 200 198 203 211 212 205 190 207 197 196 194 209
334 338 346 358 210 202 205 185 195 222 209 185 204 213 211 222 212 208 201 194 197 199 178 189 191 207 196 199 206 202 202 203 204 206 208 209 213 211 213 203 213 198 212
328 321 321 297 249 249 253 255 265 274 280 259 231 209 214 232 208 209 211 208 194 171 178 197 210 206 208 203 204 208 206 207 210 211 214 212 211 211 213 207 210 212 219
315 314 308 304 275 256 250 252 264 278 270 267 272 286 267 257 241 244 223 209 189 173 201 205 211 213 213 213 206 202 211 211 202 205 213 215 216 210 207 212 211 214 223
310 309 302 297 295 270 250 253 259 268 279 286 304 275 254 288 272 233 221 172 191 207 211 217 213 212 210 210 210 209 208 198 200 204 211 214 214 214 216 220 215 217 221
307 305 303 306 297 287 277 261 270 274 271 275 287 297 104 68 34 245 189 207 222 223 226 227 228 224 221 213 215 212 207 201 204 197 207 211 212 207 216 221 227 220 217
303 301 301 301 303 301 293 278 275 279 279 280 279 272 274 296 289 255 218 218 229 236 234 238 239 234 226 225 223 212 207 204 206 212 213 208 212 208 216 217 220 223 221
304 301 301 299 296 293 294 290 284 281 286 284 278 266 237 235 247 245 227 221 225 238 243 237 241 238 231 228 222 221 212 211 207 210 217 219 214 211 216 217 221 223 228
315 308 301 296 298 296 292 290 285 283 287 288 290 278 249 230 245 251 246 242 242 241 240 236 235 232 231 227 222 224 217 213 213 215 217 217 222 227 226 221 224 225 224
313 305 304 297 291 293 300 299 295 289 285 282 280 279 271 244 234 233 238 246 244 238 233 229 236 237 229 220 221 221 222 228 223 214 217 218 219 220 223 229 228 229 227
308 305 298 299 297 299 303 303 303 299 294 295 292 284 270 266 249 238 238 237 237 240 238 236 237 238 234 221 222 224 226 233 229 221 216 218 222 221 220 224 227 225 227
334 328 311 300 302 304 306 306 306 304 301 301 302 297 293 289 276 269 266 261 251 245 246 245 240 241 241 235 235 230 229 226 223 228 225 223 226 224 222 223 227 232 231
343 341 343 331 315 311 309 310 311 308 301 298 293 288 289 289 289 287 283 278 278 273 263 256 252 257 264 261 256 252 248 231 223 224 222 227 225 226 225 225 224 225 231